BEIDOU-2 IGSO-2

Last updated on Wed Jul 16 2025 00:02:46 GMT+0000 (Coordinated Universal Time)

1 37256U 10068A 25196.63934500 -.00000194 00000+0 00000+0 0 9994 2 37256 48.1535 276.0023 0048117 214.1276 141.5393 1.00280395 53412
UTC large
Height (km)
Speed (km/s)
/
Latitude / Longitude
Inclination (degrees)
Orbital Period (minutes)
Azimuth
Elevation
Range (km)
Doppler Factor

Next 0 passes for location: London (51.5072 / 0.1276)

Sorry there are no passes over London.